Tracking 25734 objects as of 27-May-2022
HD Live streaming from Space Station
objects crossing your sky now

STARLINK 1063

Track STARLINK 1063 now!
10-day predictions
STARLINK 1063 is classified as:


NORAD ID: 44768
Int'l Code: 2019-074BH
Perigee: 553.2 km
Apogee: 555.5 km
Inclination: 53.1 °
Period: 95.6 minutes
Semi major axis: 6925 km
RCS: Unknown
Launch date: November 11, 2019
Source: United States (US)
Launch site: AIR FORCE EASTERN TEST RANGE (AFETR)
aabbcc
Your satellite tracking list
Your tracking list is empty




NASA's NSSDC Master Catalog

Two Line Element Set (TLE):
1 44768U 19074BH  22146.75527023 -.00000596  00000-0 -21140-4 0  9990
2 44768  53.0544 314.8403 0001708  65.3136 294.8031 15.06397797139762
Source of the keplerian elements: AFSPC